Location: Tehachapi Municipal Airport
(35.1300°N, 118.4400°W)
Time: 22:09:55
(UTC-07:00)

BREEZE M DEB (TANK) - Visible Passes

Search period start: 27 September 2016 00:00
Search period end: 07 October 2016 00:00
Orbit: 294 x 12018 km, 49.5° (Epoch: 27 September)

Date Brightness Start Highest point End Pass type
(mag) Time Alt. Az. Time Alt. Az. Time Alt. Az.
27 Sep 5.8 02:17:04 43° NNW 02:19:31 47° N 02:57:32 10° ENE visible
27 Sep 7.1 06:14:19 10° NW 06:39:41 89° SW 08:17:16 10° SSE visible
28 Sep 5.8 01:33:42 45° N 01:33:42 45° N 02:00:14 10° ENE visible
28 Sep 6.9 05:28:53 10° NW 05:50:29 81° NE 07:25:27 10° SE visible
29 Sep 6.1 00:50:19 37° NNE 00:50:19 37° NNE 01:06:40 10° ENE visible
29 Sep 6.8 04:43:32 10° NW 05:01:42 72° NE 06:30:46 10° SE visible
30 Sep 6.5 00:06:55 26° NE 00:06:55 26° NE 00:15:48 10° NE visible
30 Sep 6.5 03:59:41 17° NW 04:13:22 63° NNE 05:32:40 10° ESE visible
30 Sep 6.8 23:23:30 16° NE 23:23:30 16° NE 23:26:37 10° NE visible
01 Oct 6.2 03:16:15 28° NW 03:25:27 56° NNE 04:31:11 10° ESE visible
02 Oct 6.0 02:32:49 38° NNW 02:37:54 50° NNE 03:28:08 10° E visible
03 Oct 5.9 01:49:22 44° N 01:50:40 45° N 02:26:55 10° E visible
03 Oct 7.0 05:45:09 10° NW 06:08:53 85° SW 07:43:56 10° SSE visible
04 Oct 6.1 01:05:54 40° NNE 01:05:54 40° NNE 01:29:35 10° ENE visible
04 Oct 6.9 04:59:36 10° NW 05:19:53 85° NE 06:52:04 10° SE visible
05 Oct 6.4 00:22:25 30° NE 00:22:25 30° NE 00:35:58 10° ENE visible
05 Oct 6.7 04:15:10 15° NW 04:31:20 75° NE 05:57:25 10° SE visible
05 Oct 6.8 23:38:55 20° NE 23:38:55 20° NE 23:45:02 10° NE visible
06 Oct 6.4 03:31:41 25° NW 03:43:12 65° NNE 04:59:29 10° ESE visible
06 Oct 7.1 22:55:25 11° NE 22:55:25 11° NE 22:55:53 10° NE visible
